Terminal Aerodrome Forecast
Issued by NWS Houston/Galveston TX

Home | Current Version | Previous Version | Text Only | Print | Product List | Glossary On
Versions: 1 2 3 4 5 6 7 8 9 10 11 12 13 14 15 16 17 18 19 20 21 22 23 24 25 26 27 28 29 30 31 32 33 34 35 36 37 38 39 40 41 42 43 44 45 46 47 48 49 50
000
FTUS44 KHGX 231500 AAB
TAFHOU
TAF AMD
KHOU 231500Z 2315/2412 VRB04KT P6SM VCSH BKN035
     FM231700 VRB05KT P6SM SCT040
     FM232100 09007KT P6SM VCTS SCT045CB
     FM240000 11009KT P6SM FEW040
     FM240300 VRB03KT P6SM SCT250=

USA.gov is the U.S. government's official web portal to all federal, state and local government web resources and services.